Vorticity
10 14 15 10 11 11 8 9 9 9 10 10 13 12 7 5 8 12 11 9 8 6 6 6 4 5 5 5 6 5 5 6 5 4 4 4 4 3 3 2 1 2 3 5 6 6 5 3 3 5 5 6 5 6 7 7 8 10 10 10 9 9 11 11 10 7 7 10 10 9 10 12 14 14 14 11 8 6 5 5 6 6 4 4 7
11 14 13 10 12 11 7 8 10 9 9 11 15 12 7 8 10 11 9 7 7 6 6 6 4 5 6 6 5 5 6 5 3 3 4 3 3 2 1 1 1 2 3 6 8 7 6 4 3 4 5 5 4 5 6 6 7 9 10 10 8 8 11 12 9 8 8 11 11 10 12 13 14 14 12 11 9 8 7 5 6 7 4 5 7
10 13 11 9 11 9 7 10 10 9 8 12 17 13 9 10 10 9 8 6 7 7 7 6 5 6 7 5 5 5 5 4 2 3 3 1 1 1 1 1 1 2 3 7 9 8 6 4 3 5 6 5 4 4 5 5 5 8 10 9 8 8 11 12 9 8 9 11 10 11 12 12 13 12 11 11 12 11 9 7 7 7 5 5 8
10 12 10 10 10 7 7 10 8 6 8 13 15 12 9 8 8 9 8 7 8 7 6 7 6 7 6 5 6 5 4 3 2 2 1 1 1 1 1 2 2 2 4 8 10 8 6 5 4 5 6 5 4 3 5 4 3 6 10 10 8 7 10 11 8 7 9 10 9 10 13 13 12 11 11 13 14 13 11 9 8 8 6 5 8
10 10 10 12 11 7 7 8 5 4 8 13 15 12 8 7 7 8 7 7 8 7 7 7 6 6 6 6 6 5 4 3 1 1 1 1 1 1 2 3 2 3 7 10 10 9 7 5 5 6 6 6 5 3 4 3 1 4 8 10 9 8 9 9 8 8 9 9 10 10 13 13 11 11 13 14 16 14 11 10 9 7 7 6 8
12 10 11 12 10 8 9 8 4 4 9 12 15 13 8 6 7 7 7 7 7 7 7 6 5 5 6 6 6 5 4 3 1 2 2 1 2 3 3 3 2 6 9 10 11 9 6 5 4 6 6 6 5 3 4 4 2 3 7 9 9 9 9 9 8 9 10 9 10 12 13 14 12 12 14 14 14 13 11 10 8 7 7 7 7
14 12 13 13 10 10 10 7 4 5 10 12 14 14 10 8 7 7 8 6 6 6 5 5 5 6 8 7 6 5 4 3 2 2 2 2 3 3 2 3 5 8 10 10 10 9 7 6 5 6 7 6 5 3 3 4 3 3 6 7 8 11 12 9 8 9 9 10 11 13 13 13 12 13 14 13 11 11 12 11 8 7 7 6 7
14 14 15 12 10 10 8 6 4 6 10 11 13 14 12 10 9 8 8 6 5 5 4 5 6 7 8 7 5 5 4 3 3 2 3 3 3 3 3 5 8 9 10 10 10 9 7 6 5 6 7 6 6 4 3 5 4 4 6 4 8 15 14 8 8 8 9 11 12 13 12 11 12 13 12 12 11 11 11 10 8 8 7 6 9
13 15 16 12 9 9 6 6 6 7 10 11 13 14 12 11 10 9 7 5 5 5 5 6 7 8 8 6 5 4 3 4 3 2 3 3 3 4 5 7 10 10 10 9 10 9 7 6 7 7 8 7 5 4 5 5 5 7 6 5 12 19 13 8 9 9 9 11 13 13 11 10 12 13 12 11 12 11 9 9 8 8 7 7 9
12 14 16 11 8 7 6 6 6 7 9 10 12 13 12 11 9 8 7 5 5 6 6 7 7 7 6 5 5 4 3 4 3 2 4 4 4 6 6 9 11 10 10 9 10 10 7 5 6 8 8 7 5 6 5 5 10 12 8 8 17 18 10 7 9 8 9 12 13 13 11 10 12 12 12 11 10 10 9 9 9 7 7 8 9
10 12 13 10 8 7 6 6 6 7 8 8 11 12 12 11 8 7 7 5 6 6 6 6 6 5 5 4 4 4 3 3 3 4 6 5 5 7 8 11 11 9 10 8 9 12 10 6 6 8 9 8 6 6 6 8 13 13 9 14 19 15 9 9 10 9 11 13 13 12 9 10 12 11 11 11 10 10 10 9 9 7 6 8 10
7 9 11 11 10 8 7 7 7 7 7 7 9 11 12 11 8 7 7 6 6 6 5 6 4 4 4 3 2 3 3 4 5 6 6 5 7 9 10 11 10 9 9 7 8 13 15 13 8 2 6 10 8 5 6 10 11 7 10 18 18 11 8 8 8 8 11 12 11 10 8 10 11 10 10 11 10 11 10 9 8 7 7 9 11
4 6 9 11 11 9 8 9 8 6 6 7 7 9 10 9 8 8 7 6 6 5 5 4 3 4 4 2 3 5 6 6 6 6 6 7 9 10 10 11 9 8 8 6 6 9 14 20 16 6 5 7 5 5 8 9 6 6 14 20 16 10 9 8 8 9 12 13 10 8 9 10 10 10 10 11 11 10 9 8 7 7 7 9 12
9 8 8 9 11 10 9 9 8 7 7 7 7 7 8 8 7 8 7 6 6 5 5 5 5 5 4 5 7 8 8 7 6 7 8 8 10 10 10 10 8 8 8 6 7 8 10 18 21 20 18 11 5 8 9 5 4 9 17 19 14 10 8 7 8 10 11 12 8 7 9 9 9 10 9 9 9 8 8 7 6 7 8 11 14
15 13 10 10 11 9 8 8 7 7 7 7 7 7 6 7 7 7 7 7 6 6 6 7 7 7 7 8 10 8 7 7 8 9 9 9 10 10 9 9 8 9 8 5 9 12 10 8 10 20 33 29 16 10 6 5 9 11 14 17 14 9 6 5 5 7 9 10 8 8 8 7 8 8 7 7 7 7 8 7 7 8 9 14 15
13 12 9 8 8 6 6 6 6 6 6 6 7 6 6 7 7 7 8 8 8 8 8 8 8 8 8 9 8 7 7 8 9 9 8 8 9 9 9 10 10 10 7 5 10 11 8 7 7 12 23 22 11 6 7 9 12 10 12 18 15 10 9 8 8 10 12 10 8 7 6 6 7 5 4 6 8 8 9 8 7 8 11 14 15
9 8 7 7 7 6 6 6 6 7 6 6 7 7 7 7 7 8 8 8 7 7 8 8 8 8 7 7 7 7 8 8 8 8 8 8 9 10 10 11 10 7 5 7 12 13 9 8 9 9 11 9 6 7 10 8 7 11 17 19 13 10 10 8 8 11 10 8 7 6 6 5 5 4 5 7 8 9 9 8 7 9 12 14 14
6 7 7 8 8 8 8 8 8 8 7 7 8 8 8 8 8 9 8 7 7 7 7 6 6 6 7 6 7 7 7 8 8 9 9 9 10 12 11 9 7 6 8 11 12 12 10 8 7 8 9 9 7 7 6 4 6 15 20 17 10 10 11 8 9 10 8 7 7 5 5 6 5 6 7 7 8 9 9 8 7 9 13 14 13
7 7 6 7 8 9 10 10 11 11 10 10 10 9 9 9 8 8 7 6 6 6 7 7 7 8 8 7 7 8 8 10 10 9 10 10 11 12 8 7 7 9 13 13 9 10 14 12 9 7 7 7 6 5 5 6 9 16 18 14 10 10 11 10 10 10 8 7 6 5 5 6 5 6 7 6 8 9 9 9 8 10 13 13 13
9 8 8 11 11 11 12 12 12 12 10 10 10 9 9 8 6 6 5 5 7 8 9 9 7 7 7 6 7 10 10 10 9 10 11 11 10 9 7 9 13 13 12 10 8 12 14 14 13 11 8 7 6 6 8 8 11 17 18 14 11 10 10 10 10 9 7 5 5 5 5 5 6 6 6 7 8 9 9 9 8 10 13 12 12
13 13 12 12 11 10 11 10 8 8 7 7 8 7 5 4 3 3 5 7 10 9 8 7 6 6 7 7 9 10 10 9 11 12 12 9 8 9 11 14 14 11 9 8 8 9 8 13 21 18 11 9 6 6 11 12 14 19 18 14 11 10 10 10 8 8 6 5 5 5 4 5 6 6 6 7 8 9 9 9 8 10 13 12 11
11 10 8 7 7 6 6 5 5 5 4 4 4 3 3 3 4 5 7 8 8 7 6 7 6 6 8 8 9 9 10 11 12 12 9 8 10 12 14 14 10 7 8 8 7 5 5 16 28 19 7 7 8 8 12 14 15 18 16 12 11 10 9 9 8 8 6 5 5 5 5 6 6 6 7 7 7 9 9 9 9 11 12 11 11
8 6 5 5 5 4 3 2 1 -0 -1 -1 0 2 4 6 6 7 8 8 7 7 7 7 7 7 8 9 10 12 13 12 10 10 9 9 12 13 11 9 7 6 8 7 5 5 5 15 28 22 5 4 9 10 12 14 14 15 14 12 11 9 8 9 9 6 5 5 6 5 4 6 6 5 6 6 7 9 9 8 9 11 12 11 9
6 6 5 4 3 2 0 -1 -2 -3 -2 -0 2 5 6 6 6 7 8 8 7 7 8 7 8 9 11 12 13 12 12 10 8 9 9 9 11 10 7 8 7 6 7 6 5 8 7 10 24 25 8 1 8 11 12 15 15 13 13 13 12 9 8 9 8 5 5 6 5 5 5 6 6 5 6 7 8 9 9 9 9 10 12 12 10
4 4 3 1 1 0 -1 -0 1 2 3 5 7 8 8 8 9 10 10 10 9 9 10 9 10 12 12 12 12 10 10 10 7 8 10 9 9 8 7 9 8 6 8 7 5 10 10 10 21 22 2 -4 7 10 11 16 17 13 13 14 11 8 8 8 7 6 5 5 4 5 6 6 5 6 6 7 7 8 9 8 8 9 11 11 10
6 7 6 5 6 6 6 7 9 9 11 12 12 13 13 13 15 14 13 13 12 11 12 11 11 12 11 10 10 10 9 8 7 8 9 8 8 8 8 9 8 6 9 8 8 12 11 11 22 19 -4 -8 6 9 10 17 17 12 15 15 10 8 8 8 7 5 5 6 5 5 5 5 6 6 6 6 7 8 9 9 7 8 10 9 9
7 9 9 8 9 10 10 10 11 11 13 14 15 16 17 16 17 15 14 13 12 11 11 11 11 10 9 9 10 9 7 7 8 9 8 7 8 9 9 10 9 9 11 10 11 16 16 13 20 15 -4 -6 6 8 11 20 19 14 16 16 9 7 7 6 6 6 5 6 5 3 4 6 6 6 6 7 8 8 9 9 8 8 10 10 9
6 8 9 9 8 9 10 10 11 12 12 13 15 17 17 16 16 14 12 11 10 10 10 10 9 8 9 10 9 6 6 8 8 8 8 8 10 11 11 10 10 12 14 11 12 18 19 13 12 9 3 6 11 7 9 20 22 16 16 15 10 7 7 6 7 7 5 4 3 3 5 6 6 7 7 7 8 8 8 9 8 8 9 10 9
7 9 11 10 10 11 12 12 13 11 10 12 13 13 13 13 12 10 9 9 10 10 9 8 8 9 9 8 6 6 7 8 8 8 9 10 11 11 11 11 14 16 13 10 12 15 12 5 4 7 10 13 12 7 10 20 23 19 16 13 9 7 7 6 7 6 4 3 3 4 5 5 5 6 7 6 8 9 8 8 9 8 9 10 9
10 12 12 12 13 14 13 13 13 12 11 12 13 14 14 13 12 11 11 10 10 9 8 8 9 9 7 6 6 7 8 8 8 9 10 11 11 11 11 12 16 18 12 9 12 11 4 -1 1 7 11 11 8 7 12 19 21 19 16 13 9 7 7 7 6 6 5 4 3 4 4 5 5 5 6 7 8 8 7 7 9 8 8 9 9
12 13 12 13 14 14 14 15 15 14 13 12 12 13 13 11 11 12 11 10 10 8 8 10 9 7 5 5 7 8 8 8 9 10 11 11 10 11 11 11 13 16 14 13 14 10 2 -2 -1 3 8 8 7 10 16 20 22 20 17 13 10 8 8 7 6 6 6 3 3 4 4 5 5 5 6 7 6 8 8 7 8 8 8 9 9
13 12 10 11 13 14 14 15 14 13 13 12 12 12 11 11 11 12 10 9 9 8 9 9 7 5 5 7 8 8 8 8 10 10 11 12 11 10 10 9 8 10 10 12 14 13 8 6 5 7 13 16 14 14 18 22 24 22 17 13 10 7 8 8 6 6 5 3 3 5 5 5 5 4 6 6 6 8 9 7 7 8 7 8 10
13 11 8 8 11 13 13 12 12 11 10 10 10 11 11 11 11 10 9 8 8 9 9 8 6 6 7 8 8 8 9 9 10 11 11 11 11 9 8 7 7 7 7 7 9 10 12 14 12 11 15 16 12 10 13 18 23 23 18 13 9 7 8 8 6 6 6 4 3 4 5 6 6 4 5 6 6 7 8 7 7 7 7 7 9
10 9 7 6 8 11 12 11 11 10 10 11 12 11 10 10 9 8 9 9 10 11 9 6 6 7 8 9 9 9 9 7 7 9 10 10 9 7 5 5 7 9 9 8 7 6 9 13 11 7 7 7 5 6 10 17 22 23 18 12 8 7 8 8 7 6 5 4 4 5 5 6 6 5 4 5 5 6 7 8 7 7 7 7 8
9 14 18 15 6 4 7 8 9 10 10 9 9 9 8 9 9 10 11 11 11 10 8 7 8 9 9 10 9 7 6 6 6 8 9 8 7 5 4 6 8 9 12 15 13 7 7 10 12 11 10 9 8 8 10 17 22 22 17 11 8 7 7 8 7 6 6 5 5 6 6 6 6 6 4 4 5 5 6 8 7 6 7 7 7
16 20 22 15 4 1 7 9 8 8 7 6 9 10 10 10 11 11 12 11 10 9 8 7 8 8 9 9 9 8 8 8 8 9 9 7 6 7 8 10 8 7 12 19 20 14 10 10 13 15 14 13 11 8 11 18 23 21 15 10 8 7 7 8 8 6 5 6 5 5 6 6 6 5 4 4 5 5 6 7 8 6 6 7 7
10 12 11 8 6 7 10 8 6 7 7 7 9 9 8 9 10 10 11 10 8 8 8 8 9 11 11 10 10 9 10 9 8 10 11 11 12 12 11 9 7 7 11 15 15 14 12 11 13 16 16 13 11 10 12 18 22 20 14 9 7 7 7 7 8 7 5 6 7 7 7 6 5 5 5 5 5 6 6 7 8 7 6 7 7
9 12 10 11 12 11 11 10 10 11 10 9 11 11 10 11 11 11 11 11 9 11 15 19 20 15 7 2 3 6 10 12 13 13 12 10 10 9 6 6 8 10 12 10 9 10 14 16 19 21 16 10 8 10 13 17 20 19 14 7 6 7 7 6 8 7 5 5 7 7 6 6 6 6 6 6 5 5 6 7 8 7 6 6 7
14 13 13 14 13 12 13 12 11 11 11 11 11 9 9 10 11 12 13 12 9 8 11 15 12 2 -6 -4 4 10 14 16 13 8 4 3 5 6 6 8 10 12 12 12 11 13 18 20 19 17 11 7 7 10 14 17 20 18 13 6 5 7 7 7 8 6 5 6 8 7 6 7 7 6 6 5 4 5 6 7 7 7 7 6 6
11 11 11 10 9 10 10 9 9 11 12 12 12 15 18 19 16 14 13 10 6 4 5 6 2 -2 -1 6 11 12 13 12 7 2 1 5 8 9 9 10 11 10 10 11 12 15 19 18 14 12 10 8 8 11 16 19 21 17 10 5 5 6 7 7 7 6 5 7 8 7 7 7 6 6 5 5 5 5 6 7 7 7 7 6 5
10 9 8 7 7 7 7 7 7 8 8 9 16 24 25 18 11 9 8 5 5 6 7 7 5 6 10 12 10 10 11 9 5 5 8 12 13 12 12 13 13 11 11 12 13 17 21 21 17 14 11 6 7 14 19 21 20 15 8 5 5 6 7 7 7 5 6 7 7 7 7 7 6 6 5 5 6 5 5 7 8 7 6 6 6
7 6 6 7 7 7 7 8 8 9 10 9 10 9 2 -3 1 8 9 7 7 6 6 6 7 7 9 11 10 10 9 8 9 13 16 15 13 13 14 16 16 14 13 13 13 17 21 19 13 7 3 2 7 16 22 23 20 13 7 5 6 7 7 7 7 6 6 7 7 7 7 6 7 7 6 6 5 5 6 7 8 7 6 5 5
9 9 9 10 11 11 12 12 12 13 14 12 9 6 3 4 10 12 9 7 6 5 6 9 9 10 14 15 10 4 4 10 17 22 22 19 16 14 13 14 15 15 13 13 16 20 21 17 9 3 3 7 12 18 24 25 19 10 5 5 7 7 7 6 5 5 7 7 7 8 8 8 8 8 7 6 5 5 6 7 7 7 6 5 5
13 14 14 15 17 17 18 19 20 20 18 16 14 13 12 11 11 9 6 6 7 9 12 15 14 15 17 10 0 -1 8 19 23 23 22 21 20 18 15 14 15 15 14 13 14 14 12 9 7 6 10 15 16 20 26 26 16 7 5 5 6 7 7 6 5 5 6 7 8 8 8 8 8 8 7 7 6 5 5 7 7 6 6 6 6
13 14 14 16 17 17 17 18 17 17 16 14 13 11 10 8 7 6 7 9 13 17 17 12 7 6 4 -0 -0 9 18 21 19 18 19 20 19 20 20 19 17 15 15 16 17 16 14 11 8 8 15 19 18 22 29 26 14 6 5 6 7 8 6 5 6 6 6 7 8 8 8 8 8 8 7 6 5 5 6 7 7 6 6 7 7
11 12 12 11 10 9 9 9 9 8 8 7 6 5 5 5 7 10 13 15 18 20 15 6 1 0 2 5 12 17 18 15 14 16 17 15 13 14 18 20 18 15 16 18 18 18 18 17 11 12 19 23 22 27 33 25 10 5 7 8 9 9 7 5 6 6 7 8 8 8 8 8 7 7 7 6 5 5 5 5 6 6 6 7 8
11 12 13 12 10 9 8 6 5 5 6 7 8 9 10 11 13 16 17 16 14 14 11 9 9 9 10 12 14 13 12 12 13 13 13 13 9 7 12 19 24 23 21 21 18 16 17 17 14 15 21 25 28 34 34 20 6 5 8 9 9 8 7 7 7 6 7 8 8 7 8 8 7 7 7 6 5 5 5 5 6 7 7 8 9
10 12 13 14 13 11 8 5 5 7 10 11 12 13 14 15 15 16 15 14 13 12 11 10 11 11 11 11 11 11 12 12 11 11 12 13 10 7 10 17 22 22 20 20 20 17 15 13 10 10 17 26 34 36 26 11 4 6 8 8 8 8 7 6 7 7 7 8 8 7 7 7 7 7 6 5 5 6 5 5 7 7 7 8 10
8 6 4 2 1 1 2 5 9 12 12 10 8 7 10 13 16 17 16 14 13 11 9 8 9 10 9 9 10 11 12 12 12 13 14 12 9 8 8 10 12 15 18 19 18 14 12 14 18 21 26 33 37 32 17 6 5 8 7 6 7 8 7 7 7 7 7 8 7 7 7 7 6 6 6 5 5 5 4 5 7 7 8 10 11
9 8 6 5 5 8 12 16 17 16 14 13 13 14 16 18 17 14 12 10 9 8 8 8 8 8 8 9 9 10 11 12 13 13 14 15 14 12 10 8 7 10 16 21 23 19 16 15 18 23 28 30 29 22 13 8 8 8 7 6 6 7 7 7 7 7 7 7 7 7 7 6 6 6 5 5 4 4 5 6 7 7 10 12 11
14 16 17 18 19 19 18 17 16 15 15 17 19 19 18 15 12 10 8 9 8 8 8 8 8 8 8 9 9 9 10 12 12 12 14 19 21 22 21 19 15 11 12 14 17 20 21 18 16 19 26 30 29 22 14 10 8 7 5 5 6 7 7 7 7 6 6 6 6 6 7 6 6 5 4 4 4 5 5 6 8 10 12 12 11
Height
5789 5789 5789 5789 5789 5789 5790 5790 5790 5790 5790 5791 5791 5791 5791 5792 5792 5792 5793 5793 5793 5794 5794 5794 5794 5794 5794 5794 5794 5794 5794 5794 5793 5793 5792 5791 5790 5789 5787 5786 5784 5782 5780 5778 5775 5773 5771 5768 5766 5763 5761 5759 5756 5753 5751 5748 5745 5742 5740 5736 5733 5730 5727 5724 5721 5718 5714 5711 5707 5704 5701 5697 5693 5690 5686 5682 5678 5675 5672 5669 5666 5663 5659 5653 5647
5786 5786 5787 5787 5787 5787 5787 5787 5787 5788 5788 5789 5789 5789 5789 5790 5790 5790 5791 5791 5791 5792 5792 5792 5792 5792 5792 5792 5792 5792 5792 5791 5791 5790 5790 5789 5787 5786 5784 5783 5781 5779 5777 5775 5773 5770 5768 5765 5763 5761 5758 5756 5753 5751 5748 5746 5743 5740 5737 5733 5730 5727 5724 5721 5718 5715 5712 5708 5704 5701 5697 5694 5690 5686 5683 5679 5676 5672 5669 5666 5663 5659 5656 5651 5645
5784 5784 5784 5784 5784 5784 5785 5785 5785 5785 5786 5787 5787 5787 5787 5788 5788 5789 5789 5789 5789 5790 5790 5790 5790 5790 5790 5790 5790 5790 5789 5789 5788 5788 5787 5786 5784 5783 5781 5780 5778 5776 5774 5772 5770 5767 5765 5762 5760 5758 5755 5753 5751 5748 5746 5743 5740 5737 5734 5731 5727 5724 5721 5718 5715 5712 5709 5705 5701 5698 5694 5690 5687 5683 5679 5676 5673 5669 5666 5663 5659 5656 5653 5648 5643
5781 5782 5781 5781 5782 5782 5782 5783 5783 5783 5784 5785 5785 5785 5785 5786 5786 5787 5787 5787 5787 5787 5787 5788 5788 5788 5788 5788 5787 5787 5787 5786 5786 5785 5784 5782 5781 5780 5778 5776 5775 5772 5771 5769 5767 5764 5762 5759 5757 5755 5752 5750 5748 5745 5743 5740 5737 5734 5731 5728 5725 5721 5718 5715 5712 5709 5706 5702 5699 5695 5691 5687 5684 5680 5676 5672 5669 5666 5663 5660 5657 5653 5649 5645 5641
5778 5779 5779 5779 5779 5779 5780 5780 5781 5781 5782 5782 5783 5783 5783 5784 5784 5784 5784 5785 5785 5785 5785 5785 5785 5785 5785 5785 5785 5785 5784 5784 5783 5782 5781 5779 5778 5776 5775 5773 5771 5769 5767 5765 5763 5761 5759 5756 5754 5751 5749 5747 5745 5742 5740 5737 5734 5731 5728 5725 5722 5719 5715 5712 5709 5706 5703 5700 5696 5692 5689 5685 5681 5677 5673 5670 5666 5664 5660 5657 5653 5650 5647 5643 5638
5776 5776 5776 5776 5777 5777 5778 5778 5779 5779 5780 5780 5781 5781 5781 5782 5782 5782 5782 5782 5782 5782 5783 5783 5783 5783 5783 5782 5782 5782 5782 5781 5780 5779 5777 5776 5775 5773 5772 5770 5768 5766 5764 5762 5760 5757 5755 5753 5750 5748 5746 5744 5741 5739 5736 5734 5731 5728 5725 5722 5719 5716 5712 5709 5706 5703 5700 5696 5693 5689 5686 5682 5678 5674 5670 5667 5664 5661 5658 5655 5651 5647 5644 5640 5635
5773 5773 5773 5774 5774 5775 5775 5776 5776 5777 5778 5778 5778 5778 5779 5779 5779 5780 5780 5780 5780 5780 5780 5780 5780 5780 5780 5780 5780 5779 5779 5778 5776 5775 5774 5773 5771 5770 5768 5767 5765 5763 5761 5758 5756 5754 5751 5749 5747 5745 5742 5740 5738 5735 5733 5731 5728 5725 5722 5719 5716 5712 5709 5706 5703 5700 5697 5693 5690 5686 5683 5679 5675 5672 5668 5665 5662 5658 5656 5653 5649 5645 5641 5637 5633
5770 5770 5770 5771 5772 5772 5773 5773 5774 5775 5775 5776 5776 5776 5776 5776 5777 5777 5777 5777 5777 5778 5778 5778 5778 5778 5777 5777 5777 5776 5775 5774 5773 5772 5771 5769 5768 5766 5765 5763 5761 5759 5757 5755 5753 5750 5748 5745 5743 5741 5739 5736 5734 5732 5730 5727 5724 5721 5718 5715 5712 5709 5706 5703 5700 5697 5694 5690 5687 5683 5680 5676 5673 5670 5666 5663 5660 5657 5653 5650 5646 5643 5638 5634 5629
5767 5768 5768 5769 5769 5770 5770 5771 5772 5772 5773 5773 5773 5773 5773 5774 5774 5774 5775 5775 5775 5775 5775 5775 5775 5775 5774 5774 5773 5773 5772 5771 5770 5769 5767 5766 5765 5763 5761 5759 5758 5756 5753 5751 5749 5746 5744 5742 5739 5737 5735 5733 5731 5728 5726 5723 5721 5718 5715 5712 5709 5706 5703 5700 5697 5694 5691 5688 5685 5681 5677 5674 5671 5668 5664 5661 5658 5654 5651 5647 5643 5639 5636 5631 5626
5764 5765 5766 5766 5767 5767 5768 5768 5769 5769 5770 5770 5770 5770 5771 5772 5772 5772 5772 5772 5772 5772 5772 5772 5772 5772 5771 5771 5770 5769 5769 5767 5766 5765 5764 5763 5761 5760 5758 5756 5754 5752 5749 5747 5745 5742 5740 5738 5735 5733 5731 5729 5727 5725 5722 5720 5717 5714 5711 5708 5705 5702 5699 5697 5694 5691 5688 5685 5682 5678 5675 5671 5668 5665 5662 5659 5655 5651 5648 5645 5641 5637 5633 5628 5623
5761 5762 5763 5763 5764 5764 5765 5766 5766 5767 5767 5768 5768 5768 5769 5769 5769 5769 5770 5770 5770 5770 5769 5769 5769 5768 5768 5767 5767 5766 5765 5764 5763 5762 5760 5759 5757 5756 5754 5752 5750 5748 5746 5743 5741 5738 5736 5733 5732 5730 5727 5725 5723 5721 5719 5716 5713 5710 5707 5705 5702 5699 5696 5694 5691 5688 5686 5683 5679 5676 5672 5669 5666 5663 5660 5656 5653 5649 5646 5642 5638 5634 5629 5625 5620
5759 5759 5760 5760 5761 5762 5762 5763 5764 5764 5765 5765 5765 5766 5766 5766 5766 5767 5767 5767 5767 5766 5766 5766 5766 5765 5765 5764 5763 5762 5762 5760 5759 5758 5757 5755 5754 5752 5750 5748 5746 5744 5742 5740 5737 5735 5732 5730 5728 5726 5723 5721 5719 5717 5715 5712 5709 5706 5704 5701 5698 5695 5693 5691 5688 5686 5683 5680 5676 5673 5670 5667 5664 5661 5658 5655 5651 5647 5644 5639 5635 5631 5626 5621 5617
5757 5757 5758 5758 5759 5759 5760 5760 5761 5761 5762 5762 5762 5763 5763 5763 5763 5764 5764 5764 5763 5763 5763 5763 5762 5762 5761 5760 5759 5759 5758 5757 5756 5754 5753 5751 5750 5748 5746 5744 5742 5740 5738 5736 5733 5731 5728 5726 5724 5722 5719 5717 5715 5713 5711 5708 5705 5703 5700 5697 5695 5692 5690 5688 5686 5683 5680 5677 5674 5671 5668 5665 5661 5658 5655 5652 5649 5645 5641 5637 5633 5628 5624 5618 5614
5754 5755 5755 5756 5756 5757 5757 5758 5758 5758 5759 5759 5760 5760 5760 5760 5760 5761 5761 5760 5760 5760 5759 5759 5759 5758 5757 5756 5756 5756 5754 5753 5752 5750 5749 5747 5746 5744 5742 5740 5738 5736 5734 5732 5729 5727 5724 5722 5720 5718 5715 5713 5711 5710 5707 5705 5703 5700 5697 5694 5691 5689 5687 5685 5683 5681 5678 5675 5672 5669 5666 5662 5659 5655 5652 5649 5646 5642 5638 5634 5630 5626 5622 5616 5611
5751 5752 5752 5753 5753 5754 5754 5755 5755 5755 5756 5756 5757 5757 5757 5758 5758 5758 5757 5757 5756 5756 5756 5755 5755 5754 5754 5753 5752 5752 5750 5749 5748 5746 5745 5743 5742 5740 5737 5735 5734 5732 5730 5728 5726 5723 5721 5719 5717 5714 5712 5709 5708 5706 5704 5702 5700 5698 5695 5692 5690 5687 5685 5683 5681 5678 5675 5672 5669 5666 5663 5659 5656 5653 5649 5646 5643 5640 5636 5632 5628 5624 5619 5614 5609
5748 5749 5749 5750 5750 5750 5751 5752 5752 5752 5752 5753 5753 5754 5754 5754 5754 5754 5754 5753 5753 5752 5752 5752 5751 5751 5750 5749 5749 5748 5746 5745 5744 5742 5741 5739 5737 5735 5733 5731 5730 5728 5726 5724 5722 5720 5718 5716 5713 5711 5709 5707 5705 5703 5701 5699 5697 5694 5692 5689 5687 5685 5682 5680 5678 5675 5672 5669 5666 5663 5660 5657 5653 5650 5647 5644 5641 5638 5635 5630 5626 5622 5617 5613 5608
5744 5745 5746 5746 5747 5747 5748 5748 5749 5749 5749 5750 5750 5750 5751 5751 5751 5751 5751 5750 5749 5749 5749 5748 5748 5747 5746 5745 5745 5744 5742 5741 5740 5738 5736 5735 5733 5731 5729 5727 5726 5724 5721 5719 5718 5716 5714 5712 5710 5708 5706 5704 5702 5700 5698 5695 5693 5690 5688 5686 5684 5682 5679 5677 5675 5672 5670 5667 5664 5662 5658 5655 5652 5649 5646 5643 5640 5637 5633 5629 5624 5620 5615 5610 5606
5741 5741 5742 5743 5743 5744 5744 5745 5745 5746 5746 5746 5747 5747 5747 5748 5748 5747 5747 5747 5746 5745 5745 5745 5744 5743 5742 5741 5740 5740 5738 5737 5735 5733 5732 5730 5729 5727 5725 5723 5721 5719 5717 5715 5714 5712 5710 5708 5706 5704 5702 5700 5698 5696 5694 5691 5689 5687 5685 5683 5681 5678 5677 5675 5672 5670 5668 5665 5663 5660 5657 5654 5652 5649 5645 5642 5638 5634 5631 5627 5622 5618 5613 5608 5603
5737 5738 5739 5740 5740 5741 5742 5742 5742 5743 5743 5743 5744 5744 5744 5744 5744 5744 5743 5743 5743 5742 5741 5741 5740 5739 5738 5737 5736 5735 5734 5732 5731 5729 5727 5726 5724 5722 5721 5719 5717 5715 5713 5711 5710 5708 5706 5704 5702 5700 5698 5696 5694 5692 5690 5688 5686 5684 5681 5679 5677 5675 5674 5672 5670 5668 5666 5664 5661 5659 5656 5653 5651 5647 5644 5640 5636 5632 5629 5625 5620 5616 5611 5606 5602
5734 5735 5736 5737 5737 5738 5738 5739 5739 5739 5740 5740 5740 5741 5741 5741 5740 5740 5739 5739 5739 5738 5737 5737 5736 5735 5734 5733 5732 5731 5730 5728 5727 5725 5723 5721 5720 5718 5717 5715 5713 5711 5709 5707 5705 5704 5702 5700 5698 5695 5694 5692 5690 5689 5687 5685 5683 5680 5678 5676 5674 5672 5671 5669 5667 5665 5664 5662 5660 5657 5655 5652 5649 5646 5642 5638 5634 5630 5626 5622 5618 5613 5609 5605 5600
5731 5732 5733 5733 5734 5735 5735 5735 5735 5736 5736 5737 5737 5737 5737 5737 5736 5736 5735 5735 5734 5734 5733 5732 5731 5730 5730 5728 5727 5726 5725 5724 5722 5721 5719 5717 5716 5714 5713 5711 5709 5707 5705 5703 5701 5699 5697 5695 5693 5691 5690 5689 5687 5685 5683 5681 5679 5677 5675 5673 5671 5670 5668 5667 5665 5663 5662 5660 5658 5655 5653 5650 5647 5644 5641 5637 5633 5629 5625 5621 5617 5612 5608 5604 5599
5729 5729 5730 5730 5731 5732 5732 5732 5732 5733 5733 5733 5733 5734 5734 5733 5732 5731 5731 5730 5730 5729 5728 5727 5727 5726 5725 5724 5723 5722 5721 5719 5718 5716 5715 5713 5712 5710 5708 5707 5705 5703 5701 5699 5697 5695 5693 5692 5690 5688 5687 5685 5683 5681 5679 5677 5675 5673 5671 5670 5668 5667 5666 5664 5663 5661 5660 5658 5656 5653 5651 5649 5646 5643 5639 5636 5632 5628 5624 5620 5615 5611 5606 5601 5597
5726 5726 5727 5727 5728 5728 5728 5728 5729 5729 5729 5729 5729 5729 5729 5728 5728 5727 5726 5726 5725 5724 5723 5723 5722 5721 5721 5720 5718 5717 5716 5715 5713 5712 5711 5709 5708 5706 5704 5702 5700 5698 5696 5694 5693 5691 5689 5688 5686 5684 5683 5682 5680 5678 5676 5674 5672 5670 5668 5667 5666 5664 5663 5662 5660 5659 5657 5656 5654 5652 5650 5647 5644 5641 5638 5634 5631 5627 5623 5619 5614 5609 5605 5600 5595
5723 5723 5724 5724 5724 5724 5724 5725 5725 5725 5725 5724 5724 5724 5724 5723 5723 5722 5722 5721 5720 5719 5719 5718 5717 5717 5716 5715 5714 5713 5712 5710 5709 5708 5707 5705 5703 5701 5699 5697 5696 5694 5692 5690 5688 5687 5685 5684 5682 5681 5680 5678 5676 5674 5672 5671 5669 5667 5665 5664 5663 5661 5660 5659 5658 5657 5655 5654 5652 5650 5648 5645 5642 5639 5636 5633 5629 5626 5622 5618 5613 5608 5604 5599 5594
5719 5720 5720 5720 5720 5720 5720 5720 5720 5720 5720 5720 5720 5719 5719 5718 5718 5717 5717 5716 5715 5715 5714 5713 5713 5712 5711 5710 5709 5709 5708 5706 5705 5704 5702 5700 5698 5696 5695 5693 5691 5689 5687 5685 5684 5682 5681 5680 5678 5677 5676 5675 5673 5671 5669 5667 5665 5663 5662 5661 5660 5659 5658 5657 5656 5654 5653 5651 5650 5648 5646 5643 5641 5638 5634 5631 5628 5624 5621 5617 5613 5608 5604 5599 5594
5715 5715 5716 5716 5716 5716 5716 5716 5716 5715 5715 5715 5715 5714 5713 5713 5712 5712 5711 5711 5710 5710 5709 5709 5708 5707 5707 5706 5705 5704 5703 5702 5701 5699 5697 5696 5694 5692 5690 5688 5686 5684 5683 5681 5679 5678 5677 5676 5674 5673 5672 5671 5669 5668 5666 5664 5662 5660 5659 5658 5657 5656 5655 5654 5653 5652 5651 5649 5647 5645 5644 5641 5639 5636 5633 5629 5626 5623 5620 5616 5612 5608 5604 5599 5595
5710 5710 5711 5711 5711 5711 5711 5711 5711 5711 5710 5710 5709 5709 5708 5708 5707 5707 5707 5706 5706 5706 5705 5704 5704 5703 5702 5702 5701 5700 5699 5698 5696 5694 5693 5691 5689 5687 5686 5684 5682 5680 5678 5677 5675 5674 5673 5672 5671 5670 5669 5667 5666 5664 5662 5660 5659 5657 5656 5655 5654 5653 5652 5651 5651 5650 5648 5647 5645 5643 5642 5640 5637 5634 5631 5628 5624 5621 5618 5614 5611 5607 5603 5599 5595
5705 5705 5706 5706 5706 5707 5707 5707 5706 5706 5706 5705 5705 5704 5703 5703 5703 5702 5702 5702 5702 5701 5701 5700 5699 5698 5698 5697 5697 5695 5694 5693 5691 5690 5688 5686 5685 5683 5682 5680 5677 5676 5674 5673 5671 5670 5669 5668 5667 5666 5665 5663 5662 5660 5658 5656 5655 5654 5652 5652 5651 5651 5650 5649 5648 5647 5646 5645 5643 5642 5640 5638 5635 5632 5629 5626 5623 5620 5616 5613 5610 5606 5602 5598 5594
5701 5701 5701 5702 5702 5702 5702 5701 5701 5701 5701 5701 5700 5700 5699 5698 5698 5698 5698 5698 5697 5697 5696 5695 5695 5694 5694 5693 5692 5691 5689 5688 5687 5685 5683 5682 5680 5679 5677 5675 5673 5672 5670 5669 5668 5667 5665 5664 5663 5662 5661 5659 5657 5656 5654 5653 5652 5650 5649 5648 5648 5648 5647 5646 5645 5645 5644 5643 5641 5639 5638 5635 5633 5630 5627 5624 5621 5618 5615 5612 5608 5605 5601 5597 5593
5696 5697 5697 5697 5697 5697 5696 5696 5696 5696 5696 5696 5696 5695 5694 5694 5694 5694 5694 5693 5693 5692 5692 5691 5691 5690 5689 5688 5687 5686 5685 5683 5682 5680 5679 5677 5676 5674 5673 5671 5670 5668 5666 5665 5664 5663 5662 5660 5659 5658 5657 5655 5653 5652 5650 5649 5648 5647 5646 5645 5645 5645 5644 5643 5642 5642 5641 5640 5638 5637 5635 5633 5631 5628 5626 5623 5620 5617 5614 5611 5607 5604 5600 5596 5592
5692 5692 5692 5692 5692 5692 5692 5692 5692 5692 5691 5691 5691 5691 5690 5690 5690 5690 5689 5689 5688 5688 5688 5687 5686 5685 5684 5683 5682 5681 5680 5678 5677 5675 5674 5673 5671 5670 5668 5667 5666 5664 5663 5661 5660 5659 5657 5656 5655 5654 5652 5651 5649 5648 5647 5645 5644 5643 5643 5642 5642 5642 5641 5640 5639 5639 5638 5637 5636 5635 5633 5631 5629 5626 5624 5621 5618 5615 5612 5609 5606 5603 5599 5595 5592
5687 5687 5687 5687 5687 5687 5687 5687 5687 5687 5687 5687 5686 5686 5686 5686 5686 5685 5685 5684 5684 5684 5683 5682 5681 5680 5679 5679 5678 5677 5675 5674 5672 5671 5670 5668 5667 5666 5664 5663 5662 5660 5659 5657 5656 5654 5653 5652 5651 5650 5648 5647 5645 5644 5643 5641 5640 5640 5639 5639 5638 5638 5638 5638 5637 5636 5635 5634 5633 5632 5631 5629 5627 5624 5622 5619 5616 5613 5610 5608 5605 5601 5598 5594 5591
5682 5682 5682 5683 5683 5683 5683 5683 5682 5682 5682 5682 5682 5682 5682 5682 5681 5681 5681 5680 5680 5679 5679 5678 5677 5676 5674 5674 5673 5672 5670 5669 5668 5667 5665 5664 5663 5662 5660 5659 5658 5656 5655 5653 5651 5650 5649 5648 5647 5646 5644 5643 5641 5640 5639 5637 5637 5636 5636 5635 5635 5635 5635 5634 5634 5633 5632 5631 5630 5629 5628 5627 5625 5622 5620 5617 5614 5611 5609 5606 5603 5600 5597 5594 5590
5677 5678 5678 5678 5678 5678 5679 5678 5678 5678 5678 5678 5678 5678 5677 5677 5677 5677 5676 5676 5675 5675 5674 5673 5672 5671 5670 5669 5668 5667 5665 5664 5663 5662 5661 5660 5659 5658 5656 5655 5653 5652 5650 5648 5647 5645 5644 5643 5642 5641 5640 5638 5637 5635 5634 5633 5633 5632 5632 5632 5632 5632 5631 5631 5630 5630 5629 5629 5628 5627 5625 5624 5622 5620 5618 5615 5612 5610 5607 5604 5602 5599 5596 5592 5589
5672 5673 5673 5673 5673 5674 5674 5674 5674 5674 5673 5673 5673 5673 5672 5672 5672 5672 5672 5671 5671 5670 5669 5668 5667 5666 5665 5664 5663 5662 5660 5659 5658 5657 5656 5655 5654 5653 5651 5650 5648 5646 5645 5643 5642 5641 5640 5639 5638 5637 5635 5634 5632 5631 5630 5629 5629 5628 5628 5628 5628 5628 5628 5628 5627 5626 5626 5625 5624 5623 5622 5621 5619 5617 5615 5613 5611 5608 5605 5603 5600 5598 5594 5591 5588
5667 5667 5667 5668 5668 5669 5669 5669 5669 5669 5669 5668 5668 5668 5668 5668 5668 5667 5667 5666 5666 5665 5664 5663 5662 5661 5660 5659 5658 5657 5655 5654 5653 5652 5652 5650 5649 5647 5646 5644 5643 5641 5639 5638 5636 5635 5635 5634 5633 5632 5630 5629 5628 5627 5626 5625 5624 5624 5624 5624 5624 5624 5624 5624 5624 5623 5623 5622 5621 5620 5619 5618 5617 5615 5613 5611 5609 5606 5604 5601 5599 5596 5593 5590 5587
5661 5662 5662 5663 5663 5663 5664 5664 5664 5663 5663 5663 5663 5663 5663 5663 5663 5663 5662 5661 5660 5659 5658 5658 5657 5655 5654 5653 5653 5652 5651 5649 5648 5647 5646 5645 5643 5641 5640 5639 5637 5636 5634 5633 5631 5630 5629 5629 5628 5627 5626 5624 5623 5622 5621 5620 5620 5620 5620 5620 5621 5621 5621 5621 5620 5620 5619 5619 5618 5617 5616 5615 5614 5612 5611 5609 5607 5605 5602 5599 5597 5594 5592 5589 5586
5656 5657 5657 5657 5658 5658 5658 5659 5659 5658 5658 5658 5658 5658 5658 5658 5658 5658 5657 5656 5655 5654 5653 5652 5651 5650 5649 5648 5648 5647 5646 5644 5643 5642 5641 5639 5637 5636 5635 5633 5632 5630 5629 5628 5626 5625 5624 5623 5622 5622 5620 5619 5618 5617 5616 5616 5615 5616 5616 5616 5617 5617 5617 5617 5617 5616 5616 5615 5615 5614 5613 5612 5610 5609 5608 5606 5604 5602 5600 5597 5595 5593 5591 5588 5585
5652 5652 5652 5652 5653 5653 5653 5653 5653 5653 5653 5653 5653 5653 5653 5653 5653 5653 5651 5651 5651 5650 5648 5647 5647 5646 5645 5644 5642 5642 5641 5639 5638 5637 5636 5634 5633 5631 5629 5628 5626 5625 5624 5622 5621 5620 5619 5618 5617 5616 5615 5614 5613 5612 5612 5611 5611 5611 5611 5612 5613 5613 5613 5613 5613 5613 5612 5612 5611 5610 5609 5608 5607 5606 5605 5603 5601 5599 5597 5595 5593 5591 5589 5587 5584
5647 5647 5647 5647 5647 5648 5648 5648 5648 5648 5648 5648 5648 5648 5648 5648 5648 5647 5646 5646 5646 5645 5644 5643 5642 5641 5640 5639 5637 5636 5635 5634 5633 5632 5631 5629 5627 5625 5624 5622 5621 5620 5618 5617 5616 5615 5613 5612 5612 5611 5610 5609 5609 5608 5607 5606 5606 5606 5607 5607 5608 5609 5609 5609 5610 5609 5609 5609 5608 5607 5606 5605 5604 5602 5601 5600 5598 5597 5595 5593 5590 5588 5586 5585 5582
5642 5642 5642 5642 5642 5643 5643 5643 5643 5642 5643 5643 5643 5642 5642 5642 5642 5642 5641 5641 5641 5640 5639 5638 5637 5636 5635 5634 5632 5630 5630 5629 5628 5626 5625 5624 5622 5620 5618 5617 5615 5614 5613 5611 5610 5609 5608 5607 5606 5605 5605 5604 5603 5602 5602 5601 5601 5601 5602 5603 5604 5604 5605 5605 5606 5606 5605 5605 5604 5604 5602 5601 5600 5599 5598 5596 5595 5594 5592 5590 5588 5585 5583 5581 5579
5638 5638 5637 5637 5638 5638 5638 5637 5637 5637 5638 5638 5638 5637 5637 5637 5637 5637 5636 5636 5636 5635 5634 5632 5631 5631 5630 5628 5626 5625 5624 5624 5622 5620 5619 5617 5616 5614 5613 5611 5610 5608 5607 5606 5605 5603 5603 5602 5601 5600 5600 5599 5598 5597 5597 5596 5596 5597 5597 5598 5599 5600 5601 5601 5601 5602 5601 5601 5601 5600 5599 5598 5597 5595 5594 5593 5592 5591 5589 5587 5585 5583 5580 5578 5576
5633 5633 5632 5632 5633 5633 5632 5632 5632 5632 5633 5633 5632 5632 5632 5632 5632 5632 5631 5631 5630 5629 5628 5627 5625 5625 5624 5623 5621 5619 5619 5617 5616 5614 5612 5611 5609 5608 5607 5606 5604 5603 5602 5601 5599 5598 5597 5596 5596 5595 5594 5594 5593 5592 5591 5591 5591 5592 5593 5594 5595 5595 5596 5597 5597 5597 5597 5597 5597 5596 5595 5594 5593 5592 5590 5589 5588 5587 5586 5584 5582 5580 5578 5576 5573
5628 5628 5627 5627 5628 5627 5627 5627 5627 5627 5627 5627 5627 5627 5627 5627 5627 5626 5626 5626 5625 5624 5623 5621 5620 5619 5619 5618 5615 5614 5613 5611 5609 5607 5606 5604 5603 5603 5602 5600 5599 5597 5597 5595 5594 5593 5592 5591 5590 5590 5589 5588 5587 5587 5586 5586 5587 5587 5588 5589 5590 5591 5592 5593 5593 5593 5593 5593 5593 5592 5591 5590 5589 5588 5587 5586 5585 5584 5582 5581 5579 5577 5576 5574 5571
5622 5623 5623 5623 5623 5623 5622 5622 5622 5622 5622 5622 5622 5622 5622 5622 5622 5621 5621 5620 5619 5619 5618 5617 5615 5614 5614 5613 5611 5608 5607 5605 5603 5602 5600 5599 5597 5597 5596 5595 5593 5592 5591 5590 5589 5588 5587 5586 5585 5584 5583 5582 5582 5581 5581 5581 5582 5583 5584 5585 5586 5587 5588 5588 5588 5589 5589 5589 5588 5588 5587 5586 5585 5584 5583 5582 5581 5580 5578 5577 5575 5573 5572 5570 5568
5618 5618 5619 5619 5618 5618 5618 5618 5618 5618 5618 5618 5618 5618 5617 5617 5616 5616 5615 5614 5614 5614 5613 5612 5610 5609 5608 5608 5606 5604 5602 5600 5599 5597 5595 5594 5592 5591 5591 5589 5588 5586 5585 5585 5584 5582 5581 5581 5580 5579 5578 5577 5576 5576 5576 5576 5578 5579 5580 5581 5582 5583 5583 5584 5584 5584 5584 5584 5584 5583 5582 5581 5581 5580 5579 5578 5577 5576 5574 5573 5571 5570 5568 5566 5564
5614 5614 5614 5614 5614 5614 5614 5614 5614 5613 5613 5613 5613 5612 5612 5611 5611 5610 5609 5609 5608 5608 5608 5607 5606 5605 5604 5603 5601 5599 5598 5596 5594 5592 5590 5589 5588 5587 5586 5584 5583 5581 5580 5579 5578 5577 5576 5575 5574 5573 5572 5571 5571 5570 5571 5572 5574 5575 5576 5577 5578 5579 5579 5579 5579 5579 5580 5580 5579 5579 5578 5577 5576 5575 5575 5574 5573 5572 5571 5569 5568 5566 5565 5563 5561
5609 5609 5609 5609 5608 5608 5609 5609 5609 5608 5608 5608 5607 5607 5607 5606 5605 5605 5604 5603 5603 5603 5602 5602 5601 5600 5599 5598 5596 5595 5593 5591 5589 5588 5586 5585 5584 5582 5581 5580 5578 5576 5575 5574 5573 5572 5571 5570 5568 5568 5567 5566 5566 5566 5567 5569 5570 5571 5572 5573 5574 5574 5575 5575 5575 5575 5575 5575 5575 5574 5574 5573 5572 5571 5570 5569 5568 5567 5566 5565 5564 5562 5560 5559 5557
5604 5604 5604 5604 5604 5603 5604 5604 5604 5604 5603 5602 5602 5601 5601 5601 5600 5600 5600 5599 5599 5598 5598 5597 5596 5595 5594 5593 5591 5590 5589 5587 5585 5583 5581 5580 5579 5578 5577 5575 5573 5572 5570 5569 5568 5567 5565 5564 5563 5562 5562 5561 5561 5562 5563 5565 5566 5568 5569 5569 5569 5570 5570 5570 5570 5570 5570 5570 5570 5569 5569 5568 5568 5567 5566 5565 5564 5563 5562 5560 5559 5558 5556 5554 5553
5599 5599 5599 5599 5598 5598 5598 5598 5598 5598 5598 5597 5597 5597 5596 5596 5595 5595 5595 5595 5594 5594 5593 5592 5591 5590 5589 5588 5586 5585 5584 5583 5580 5578 5577 5575 5574 5573 5572 5571 5569 5567 5566 5564 5563 5562 5561 5560 5559 5558 5557 5557 5558 5559 5560 5561 5563 5564 5564 5565 5565 5565 5566 5566 5566 5565 5565 5565 5565 5564 5564 5564 5563 5563 5562 5561 5560 5559 5557 5556 5554 5553 5551 5550 5548
5594 5594 5594 5593 5593 5593 5593 5592 5592 5592 5592 5592 5592 5592 5591 5591 5591 5590 5590 5590 5590 5589 5588 5587 5586 5585 5584 5583 5582 5580 5579 5578 5576 5574 5572 5571 5569 5568 5567 5566 5565 5563 5562 5561 5559 5558 5557 5556 5555 5555 5554 5554 5555 5556 5557 5558 5559 5560 5560 5560 5561 5561 5561 5561 5561 5561 5560 5560 5560 5560 5559 5559 5558 5558 5557 5556 5555 5554 5552 5551 5550 5548 5547 5545 5543